STARLINK-1460, 45676

Orbit data source: Space-Track

STARLINK-1460, 45676 is a payload satellite owned by SpaceX/Seattle (US) in LEO that was launched on Thu, 04 Jun 2020 UTC via an FALCON 9 launch vehicle from the Air Force Eastern Test Range (AFETR). Payload-class satellites include a variety of spacecraft equipped with specific instruments for various scientific and technological missions. These include communications satellites like Starlink; space stations such as the ISS; scientific satellites like the Hubble; Earth observation satellites from companies like Planet Labs, Umbra, and HawkEye 360; GPS; miniature CubeSats for education and research; and military/defense satellites.

Loading next visibility...
Identifier
45676, 2020-035V
Orbit
LEO
Country
Flag of USUS
Related business
Manufacturer
SpaceX/Seattle
Mission
Operational Commercial Communications
Bus & Motor
STARLINK, Unknown motor
Mass
260 kg wet, ~248 kg dry
Launch date (UTC)
2020-06-04 (5 years ago)
Launch vehicle
FALCON 9
Launch site
Air Force Eastern Test Range (AFETR)
Object type
Payload
Rocket body
Debris
Shape & HBR
Box + 1 Pan, 10.1 m
Radar Cross Section
13.562 m², Large (>1 m²)

Expand to show TLE details & history
Last TLE update: 1 day ago

TLE from 1 day ago
0 STARLINK-1460
1 45676U 20035V   25286.94190462  .00002453  00000-0  18350-3 0  9990
2 45676  53.0552   5.3942 0001000  92.0954 268.0150 15.06405293296579
Epoch: 2025-10-13T22:36Z
TLE epoch observation values (Epoch: 2025-10-13T22:36:20.559Z)
Latitude
0.00003°
Longitude
3.57111°
Altitude
548.099 km
Speed
7.589 km/s
True Right ascension
00h 21m 34s
True Declination
0° 00' 00"
Sunlit
Object was in full shadow at epoch
Visualization orbit readout
Latitude
Unknown
Longitude
Unknown
Altitude
Unknown
Speed
Unknown
Apparent Right ascension
Unknown
Apparent Declination
Unknown
Sunlit
N/A
Visualization observer readout
Local Sidereal Time
19:05:11
Azimuth
Unknown
Elevation
Unknown
Doppler factor
Unknown
Orbital elements
Apogee altitude
548.159 km
Perigee altitude
546.773 km
Semi-major axis
6,925.603 km
Eccentricity
0.0001
Inclination
53.0552°
RAAN
5.3942°
Arg. of periapsis
92.0954°
True anomaly
268.00355°
Mean anomaly
268.015°
Eccentric anomaly
268.00927°
Mean motion
3.7658 °/min
Orbital period
95.6 mins
BSTAR
0.0001835
Loading maneuver chart data...
Computing Atmospheric mass density...
Loading historical data...
Loading historical data...
Loading historical data...
Loading historical data...
Loading historical data...
Loading historical data...
Loading historical data...

Documentation

Showing up to 5 results
|